Location: Earls Croome
(52.0667°N, 2.2000°W)
Time: 07:30:18
(UTC+00:00)

deb Kosmos-1763 - Pass Details

Date: 17 November 2019
Orbit: 473 x 484 km, 74.0° (Epoch: 12 December)

Event Time Altitude Azimuth Distance (km) Brightness Sun altitude
Exits shadow 05:28:53 47° 312° (NW) 653 4.3 -18.6°
Drops below altitude 10° 05:32:18 10° 16° (NNE) 1,685 6.9 -18.0°
Sets 05:34:29 0° 22° (NNE) 2,570 7.9 -17.7°
